TimeCST,TemperatureF,Dew PointF,Humidity,Sea Level PressureIn,VisibilityMPH,Wind Direction,Wind SpeedMPH,Gust SpeedMPH,PrecipitationIn,Events,Conditions,WindDirDegrees,DateUTC
12:56 AM,3.9,-0.0,84,30.09,10.0,South,6.9,-,N/A,,Clear,180,2012-12-30 06:56:00
1:56 AM,5.0,1.0,84,30.08,10.0,Calm,Calm,-,N/A,,Clear,0,2012-12-30 07:56:00
2:56 AM,5.0,1.0,84,30.08,10.0,South,8.1,-,N/A,,Clear,180,2012-12-30 08:56:00
3:56 AM,8.1,3.9,83,30.06,10.0,South,3.5,-,N/A,,Partly Cloudy,180,2012-12-30 09:56:00
4:56 AM,9.0,3.9,80,30.04,10.0,South,6.9,-,N/A,,Clear,190,2012-12-30 10:56:00
5:56 AM,9.0,3.9,80,30.04,10.0,South,5.8,-,N/A,,Clear,190,2012-12-30 11:56:00
6:56 AM,10.0,6.1,84,30.02,10.0,Calm,Calm,-,N/A,,Clear,0,2012-12-30 12:56:00
7:56 AM,8.1,3.9,83,30.02,10.0,SSW,4.6,-,N/A,,Clear,200,2012-12-30 13:56:00
8:56 AM,3.0,-0.9,84,30.04,10.0,Calm,Calm,-,N/A,,Clear,0,2012-12-30 14:56:00
9:56 AM,5.0,1.9,87,30.03,10.0,South,5.8,-,N/A,,Clear,180,2012-12-30 15:56:00
10:56 AM,17.1,10.9,77,30.00,10.0,Calm,Calm,-,N/A,,Clear,0,2012-12-30 16:56:00
11:56 AM,19.9,12.0,71,29.98,10.0,West,5.8,-,N/A,,Clear,270,2012-12-30 17:56:00
12:56 PM,21.9,14.0,72,29.95,10.0,NW,13.8,-,N/A,,Clear,310,2012-12-30 18:56:00
1:56 PM,23.0,18.0,81,29.94,10.0,NW,15.0,-,N/A,,Mostly Cloudy,320,2012-12-30 19:56:00
2:56 PM,24.1,19.0,81,29.95,10.0,NNW,16.1,-,N/A,,Overcast,330,2012-12-30 20:56:00
3:56 PM,24.1,18.0,77,29.98,10.0,NW,19.6,-,N/A,,Clear,320,2012-12-30 21:56:00
4:56 PM,21.0,16.0,81,30.01,10.0,NW,16.1,-,N/A,,Clear,320,2012-12-30 22:56:00
5:22 PM,21.2,17.6,86,29.94,10.0,NW,19.6,-,N/A,,Mostly Cloudy,320,2012-12-30 23:22:00
5:31 PM,21.2,17.6,86,29.94,10.0,NNW,23.0,28.8,N/A,,Overcast,330,2012-12-30 23:31:00
5:56 PM,21.0,16.0,81,30.06,10.0,NNW,19.6,-,N/A,,Overcast,330,2012-12-30 23:56:00
6:56 PM,17.1,10.9,77,30.09,10.0,NNW,21.9,26.5,N/A,,Mostly Cloudy,330,2012-12-31 00:56:00
7:56 PM,17.1,10.9,77,30.11,10.0,NW,11.5,-,N/A,,Overcast,310,2012-12-31 01:56:00
8:56 PM,18.0,12.9,81,30.13,8.0,NW,11.5,-,0.00,Snow,Light Snow,320,2012-12-31 02:56:00
9:56 PM,18.0,12.9,81,30.14,4.0,NW,10.4,-,0.00,Snow,Light Snow,310,2012-12-31 03:56:00
10:56 PM,16.0,10.9,81,30.15,8.0,NW,16.1,-,0.00,Snow,Light Snow,320,2012-12-31 04:56:00
11:56 PM,12.9,9.0,84,30.17,6.0,North,11.5,-,0.00,Snow,Light Snow,10,2012-12-31 05:56:00